Preview of NWS' New Version of Forecast
This preview is not operational and should not be used for support decisions.

Regional Weather Roundup (RWR)

Issued by National Weather Service (NWS)

                            
000
ASUS44 KMEG 240800
RWRTN 
TENNESSEE HOURLY STATE WEATHER ROUNDUP
NATIONAL WEATHER SERVICE MEMPHIS TN
300 AM CDT FRI MAY 24 2019

TNZ002-004-019-021-049-052-054-088>092-240900-
WEST TENNESSEE
  
CITY           SKY/WX    TMP DP  RH WIND       PRES   REMARKS
MEMPHIS INTL   FAIR      75  65  70 S6        30.07S                  
NWS MEMPHIS      N/A     70 N/A N/A MISG        N/A                   
JACKSON        FAIR      66  65  96 CALM      30.09F                  
$$

TNZ008-025-027-028-033-062-065-066-240900-
NORTH MIDDLE TENNESSEE
  
CITY           SKY/WX    TMP DP  RH WIND       PRES   REMARKS
NASHVILLE      FAIR      69  63  81 CALM      30.12S                  
CLARKSVILLE    FAIR      67  64  90 CALM      30.10F                  
SMYRNA         FAIR      66  64  93 CALM      30.13F                  
CROSSVILLE     FAIR      63  61  93 CALM      30.19                   
$$

TNZ061-075-076-078-094-096-097-240900-
SOUTH MIDDLE TENNESSEE
  
CITY           SKY/WX    TMP DP  RH WIND       PRES   REMARKS
$$

TNZ017-018-042-046-047-240900-
NORTHEAST TENNESSEE
  
CITY           SKY/WX    TMP DP  RH WIND       PRES   REMARKS
TRI CITIES     FAIR      62  60  93 CALM      30.17F                  
$$

TNZ012-013-036-069-073-074-240900-
CENTRAL EAST TENNESSEE
  
CITY           SKY/WX    TMP DP  RH WIND       PRES   REMARKS
KNOXVILLE      FAIR      72  66  81 CALM      30.14S                  
OAK RIDGE      FAIR      70  66  87 CALM      30.16S                  
$$

TNZ083-085-099-240900-
SOUTHEAST TENNESSEE
  
CITY           SKY/WX    TMP DP  RH WIND       PRES   REMARKS
CHATTANOOGA    FAIR      71  68  90 CALM      30.14F                  
$$

SKY/WX REPORTED AS FAIR MEANS FEW OR NO CLOUDS BELOW
12 THOUSAND FEET.